Location: Boston Heights
(34.0597°N, 118.1954°W)
Time: 02:44:50
(UTC+00:00)

Daily predictions for brighter satellites

Satellite Brightness Start Highest point End
(mag) Time Altitude Azimuth Time Altitude Azimuth Time Altitude Azimuth
ADEOS Rocket 3.9 01:55:09 10° NNE 02:02:28 43° E 02:09:30 10° SSE
GPS 2-04 Rocket1 3.5 02:00:12 10° SW 02:04:12 43° SSE 02:08:11 10° E
NOSS 2-3 (E) 3.6 02:01:19 10° SSW 02:05:25 61° ESE 02:09:56 10° NE
H-2A R/B 3.9 02:05:56 10° ENE 02:06:47 10° ENE 02:07:38 10° NE
STARLINK-1068 3.9 02:02:56 10° SW 02:07:03 69° NW 02:11:10 10° NE
Gbstr 26 Del rocket 3.7 02:04:29 10° SSW 02:07:55 31° SE 02:11:45 10° ENE
Meteor 1-27 Rocket 4.2 02:03:18 10° N 02:08:29 39° ENE 02:13:43 10° SE
Cosmos 1633 Rocket 3.0 02:04:29 10° S 02:08:44 61° E 02:13:01 10° NNE
Cosmos 2346 Rocket 4.5 02:03:06 10° N 02:09:19 69° E 02:15:25 10° SSE
Cosmos 1666 Rocket 3.7 02:10:19 10° S 02:14:47 88° W 02:19:17 10° N
Cosmos 1943 Rocket 2.5 02:10:54 10° SSW 02:16:29 73° WNW 02:22:03 10° NNE
STARLINK-1060 4.3 02:12:58 10° WSW 02:17:01 55° NW 02:21:05 10° NE
Cosmos 1725 Rocket 4.2 02:10:51 10° S 02:17:01 80° W 02:23:14 10° N
SKYMED 2 4.4 02:13:34 10° N 02:17:48 54° WNW 02:22:01 10° SSW
NOSS 2-3 (D) 3.5 02:16:13 10° SSW 02:20:23 83° ESE 02:24:58 10° NNE
Haruka 3.6 02:17:49 10° W 02:21:08 48° S 02:28:19 10° ESE
STARLINK-1030 4.4 02:18:01 10° WSW 02:22:01 49° NW 02:26:03 10° NE
Lacrosse 5 3.5 02:20:51 10° SSE 02:23:38 15° ESE 02:25:40 12° E
SL-4 R/B 2.3 02:20:55 10° NW 02:25:40 89° SW 02:30:06 10° SE
CZ-2D R/B 3.4 02:24:23 10° SSE 02:28:09 53° ENE 02:31:57 10° N
STARLINK-1065 4.5 02:25:04 10° S 02:28:44 31° SE 02:31:35 15° ENE
NOSS 3-1 (A) 3.7 02:23:58 10° SW 02:29:13 62° WNW 02:35:12 10° NNE
Cosmos 1812 2.6 02:25:34 10° N 02:29:25 65° E 02:33:14 10° SSE
STARLINK-1063 4.3 02:29:57 10° SSW 02:33:43 35° SE 02:36:24 17° ENE
HJ-1C 4.4 02:31:31 10° SE 02:34:16 25° ENE 02:37:02 10° NNE
Hubble Space Telescope 2.0 02:30:50 10° SW 02:34:30 31° S 02:37:20 15° ESE
STARLINK-1064 4.1 02:34:47 10° SSW 02:38:39 39° SE 02:41:10 19° ENE
Cosmos 1346 Rocket 2.8 02:36:48 10° S 02:40:44 59° E 02:44:39 10° NNE
Cosmos 2285 Rocket 4.4 02:36:22 10° N 02:42:19 40° ENE 02:48:16 10° SE
STARLINK-1041 4.0 02:39:39 10° SSW 02:43:35 44° SE 02:45:56 21° ENE
Tsikada Rocket 4.3 02:38:36 10° N 02:44:58 76° W 02:51:22 10° S
STARLINK-1038 3.8 02:44:35 10° SSW 02:48:35 50° SE 02:50:45 24° ENE
Cosmos 1656 Rocket 3.5 02:45:25 10° SSW 02:50:51 76° ESE 02:56:25 10° NNE
SL-27 R/B 2.3 02:47:47 10° NNW 02:51:06 78° WSW 02:54:22 10° S
STARLINK-1046 3.7 02:49:29 10° SSW 02:53:30 56° SE 02:55:30 27° ENE
Cosmos 468 Rocket 4.5 02:50:11 10° SSE 02:54:59 37° E 02:59:50 10° NE
Cosmos 1470 Rocket 3.8 02:50:42 10° SSW 02:55:00 70° W 02:59:22 10° N
STARLINK-1039 3.6 02:54:24 10° SSW 02:58:29 64° SE 03:00:17 31° ENE
CRYOSAT 2 4.4 02:54:10 10° S 02:59:03 85° W 03:03:59 10° N
Cosmos 2369 Rocket 3.6 02:54:44 10° SW 02:59:57 39° WNW 03:05:16 10° N
Cosmos 2242 Rocket 3.7 02:55:51 10° N 03:00:18 53° E 03:04:46 10° SSE
STARLINK-1045 3.5 02:59:21 10° SW 03:03:27 72° SE 03:05:06 35° ENE
Cosmos 1777 Rocket 4.3 03:01:10 10° NNW 03:06:25 68° WSW 03:11:36 10° S
Cosmos 1862 Rocket 3.9 03:03:42 10° NNW 03:08:00 64° W 03:12:18 10° S
STARLINK-1050 3.5 03:04:23 10° SW 03:08:30 84° SE 03:10:01 38° NE
STARLINK-1055 3.5 03:09:19 10° SW 03:13:27 88° NW 03:14:46 42° NE
Meteor 2-11 Rocket 4.3 03:07:58 10° S 03:13:59 66° E 03:20:01 10° NNE
Cosmos 1833 4.3 03:09:26 10° N 03:15:03 52° ENE 03:17:17 33° ESE
CZ-4 R/B 4.1 03:13:05 10° SSW 03:16:21 22° W 03:19:36 10° NW
STARLINK-1022 3.6 03:14:19 10° SW 03:18:26 79° NW 03:19:34 47° NNE
BREEZE-M DEB (TANK) 3.3 03:17:49 10° NW 03:23:10 48° SW 03:23:49 39° S
Cosmos 1763 Rocket 3.4 03:18:11 10° S 03:23:14 57° ESE 03:24:53 39° NE
STARLINK-1042 3.7 03:19:19 10° SW 03:23:25 71° NW 03:24:21 50° NNE
Cosmos 1072 Rocket 4.5 03:18:21 10° S 03:24:46 88° W 03:31:08 10° N
Cosmos 1703 Rocket 3.5 03:20:23 10° N 03:24:39 61° ENE 03:24:39 61° ENE
STARLINK-60 4.3 03:21:38 10° NW 03:23:41 32° NNW 03:23:41 32° NNW
ARGOS 3.2 03:25:45 47° ESE 03:26:33 52° ENE 03:31:48 10° N
Cosmos 1869 Rocket 4.3 03:22:52 10° S 03:25:41 38° SSE 03:25:41 38° SSE
STARLINK-1056 3.9 03:24:17 10° SW 03:28:23 63° NW 03:29:07 52° N
Okean 1-7 4.1 03:24:18 10° N 03:26:42 31° NNE 03:26:42 31° NNE
USA 267 3.3 03:26:41 39° ENE 03:28:53 54° SE 03:35:14 10° SSW
MOS 1 4.1 03:27:59 18° SSE 03:32:19 74° ENE 03:37:58 10° N
STARLINK-1054 4.1 03:29:16 10° WSW 03:33:21 57° NW 03:33:52 52° N
Ariane Rocket 3.2 03:30:43 10° S 03:35:47 70° WSW 03:40:53 10° NNW
SJ 16-02 3.7 03:34:12 10° N 03:34:45 13° N 03:34:45 13° N
STARLINK-1062 4.2 03:34:19 10° WSW 03:38:21 51° NW 03:38:40 49° NNW
Cosmos 724 4.2 03:34:02 10° NNW 03:39:51 87° WSW 03:41:49 44° SSE
Meteor 1-18 Rocket 4.1 03:35:46 10° N 03:41:41 75° E 03:43:09 51° SSE
STARLINK-1053 4.4 03:39:21 10° WSW 03:43:20 46° NW 03:43:27 46° NW
GPS 2-04 Rocket1 3.3 03:39:31 10° W 03:42:58 58° W 03:42:58 58° W
H-2A R/B 2.0 03:43:06 37° S 03:45:20 87° WSW 03:50:47 10° NNW
Meteor 1-14 Rocket 4.3 03:43:04 10° SSW 03:48:35 72° W 03:54:07 10° N
Cosmos 44 3.8 03:50:09 10° NW 03:54:29 51° WSW 03:54:32 51° WSW
Lacrosse 5 2.5 04:01:01 10° SW 04:04:57 51° WSW 04:04:57 51° WSW
CZ-2C R/B 3.7 04:09:35 50° SSW 04:10:50 62° W 04:16:34 10° NNW
Hubble Space Telescope 3.3 04:11:31 10° WSW 04:12:40 17° WSW 04:12:40 17° WSW
Nadezhda 4 Rocket 4.3 04:16:11 10° NNW 04:21:43 63° NW 04:21:43 63° NW
Cosmos 1943 Rocket 4.5 11:15:11 18° ESE 11:15:11 18° ESE 11:16:59 10° ESE
Atlas Centaur 2 4.2 11:17:27 31° SE 11:17:27 31° SE 11:23:15 10° E
